GIA713 YSSY-WIII

Flight info

Callsign GIA713
Flight time N/A
Altitude 34000
Route KADOM A576 PKS G222 SAPDA A585 IPKON
Aircraft B77W/H-SDE1E2E3FGHIJ2J3J4J5M1RWXY/LB1D1

Departure

Time N/A
Airport Sydney Kingsford Smith International Airport (YSSY)

Arrival

Time 2026-05-01 09:26
Airport Soekarno-Hatta International Airport (WIII)
Time Latitude Longitude Altitude Speed Heading
2026-05-01 07:23 -15.17871 117.01576 35932 ft 469 kts 298°
2026-05-01 07:24 -15.13059 116.92828 35929 ft 470 kts 298°
2026-05-01 07:24 -15.09821 116.86941 35932 ft 470 kts 298°
2026-05-01 07:25 -15.06605 116.81100 35928 ft 470 kts 298°
2026-05-01 07:25 -15.03370 116.75228 35925 ft 469 kts 298°
2026-05-01 07:26 -15.00134 116.69360 35922 ft 469 kts 298°
2026-05-01 07:26 -14.96901 116.63500 35925 ft 469 kts 298°
2026-05-01 07:27 -14.94210 116.58626 35925 ft 469 kts 298°
2026-05-01 07:27 -14.90442 116.51809 35927 ft 470 kts 298°
2026-05-01 07:28 -14.87196 116.45939 35927 ft 470 kts 298°
2026-05-01 07:28 -14.84494 116.41057 35926 ft 470 kts 298°
2026-05-01 07:29 -14.81242 116.35186 35925 ft 470 kts 298°
2026-05-01 07:29 -14.77458 116.28358 35927 ft 470 kts 298°
2026-05-01 07:30 -14.74732 116.23445 35932 ft 470 kts 297°
2026-05-01 07:30 -14.71476 116.17579 35921 ft 470 kts 297°
2026-05-01 07:31 -14.68242 116.11757 35926 ft 470 kts 297°
2026-05-01 07:32 -14.60136 115.97182 35925 ft 470 kts 297°
2026-05-01 07:33 -14.55242 115.88397 35927 ft 470 kts 297°
2026-05-01 07:33 -14.50346 115.79617 35923 ft 470 kts 297°
2026-05-01 07:34 -14.45445 115.70839 35918 ft 470 kts 297°
2026-05-01 07:35 -14.42195 115.65023 35926 ft 470 kts 297°
2026-05-01 07:35 -14.38926 115.59177 35921 ft 471 kts 297°
2026-05-01 07:36 -14.35654 115.53329 35923 ft 471 kts 297°
2026-05-01 07:36 -14.32377 115.47477 35919 ft 471 kts 297°
2026-05-01 07:37 -14.27460 115.38705 35919 ft 471 kts 298°
2026-05-01 07:37 -14.24198 115.32891 35917 ft 471 kts 298°
2026-05-01 07:38 -14.20922 115.27055 35913 ft 471 kts 298°
2026-05-01 07:39 -14.15996 115.18284 35919 ft 471 kts 298°
2026-05-01 07:39 -14.11057 115.09510 35916 ft 472 kts 298°
2026-05-01 07:40 -14.07772 115.03684 35913 ft 473 kts 298°
2026-05-01 07:40 -14.04504 114.97890 35913 ft 473 kts 298°
2026-05-01 07:41 -14.01195 114.92025 35916 ft 473 kts 298°
2026-05-01 07:42 -13.96230 114.83232 35908 ft 473 kts 298°
2026-05-01 07:42 -13.92919 114.77374 35904 ft 473 kts 298°
2026-05-01 07:43 -13.89602 114.71509 35911 ft 473 kts 298°
2026-05-01 07:43 -13.84628 114.62722 36355 ft 477 kts 298°
2026-05-01 07:44 -13.81284 114.56821 36830 ft 478 kts 298°
2026-05-01 07:44 -13.77926 114.50898 37173 ft 480 kts 298°
2026-05-01 07:45 -13.76242 114.47930 37325 ft 481 kts 298°
2026-05-01 07:45 -13.74553 114.44954 37472 ft 482 kts 299°
2026-05-01 07:45 -13.72861 114.41974 37623 ft 483 kts 299°
2026-05-01 07:45 -13.71165 114.38988 37761 ft 484 kts 299°
2026-05-01 07:46 -13.67760 114.32995 37890 ft 486 kts 299°
2026-05-01 07:47 -13.62645 114.24001 37897 ft 485 kts 299°
2026-05-01 07:47 -13.59238 114.18016 37906 ft 485 kts 299°
2026-05-01 07:48 -13.54131 114.09053 37910 ft 484 kts 299°
2026-05-01 07:48 -13.50718 114.03067 37912 ft 484 kts 299°
2026-05-01 07:49 -13.45662 113.94207 37907 ft 484 kts 299°
2026-05-01 07:50 -13.42251 113.88236 37907 ft 484 kts 299°
2026-05-01 07:50 -13.37134 113.79286 37908 ft 484 kts 299°
2026-05-01 07:51 -13.33723 113.73325 37908 ft 484 kts 299°
2026-05-01 07:52 -13.28623 113.64420 37901 ft 484 kts 299°
2026-05-01 07:52 -13.25206 113.58459 37901 ft 484 kts 299°
2026-05-01 07:53 -13.20085 113.49532 37902 ft 484 kts 299°
2026-05-01 07:53 -13.16670 113.43583 37901 ft 484 kts 299°
2026-05-01 07:55 -13.08132 113.28731 37892 ft 484 kts 299°
2026-05-01 07:56 -12.99643 113.13991 37888 ft 468 kts 299°
2026-05-01 07:57 -12.94708 113.05432 37900 ft 464 kts 300°
2026-05-01 07:58 -12.88174 112.94110 37900 ft 464 kts 300°
2026-05-01 07:59 -12.81610 112.82754 37898 ft 465 kts 300°
2026-05-01 08:00 -12.71696 112.65626 37901 ft 466 kts 300°
2026-05-01 08:01 -12.65070 112.54199 37894 ft 467 kts 300°
2026-05-01 08:02 -12.60115 112.45662 37899 ft 466 kts 300°
2026-05-01 08:03 -12.55147 112.37111 37893 ft 465 kts 300°
2026-05-01 08:03 -12.50178 112.28565 37884 ft 465 kts 300°
2026-05-01 08:04 -12.43546 112.17171 37896 ft 467 kts 300°
2026-05-01 08:05 -12.38549 112.08597 37895 ft 468 kts 301°
2026-05-01 08:06 -12.33555 112.00035 37896 ft 469 kts 301°
2026-05-01 08:07 -12.26898 111.88635 37893 ft 469 kts 301°
2026-05-01 08:08 -12.21872 111.80035 37897 ft 469 kts 301°
2026-05-01 08:09 -12.15195 111.68623 37894 ft 469 kts 301°
2026-05-01 08:09 -12.11843 111.62899 37893 ft 469 kts 301°
2026-05-01 08:10 -12.05139 111.51461 37898 ft 469 kts 301°
2026-05-01 08:11 -11.97482 111.40791 37894 ft 468 kts 315°
2026-05-01 08:12 -11.89962 111.34415 37895 ft 469 kts 321°
2026-05-01 08:13 -11.82255 111.28233 37884 ft 470 kts 321°
2026-05-01 08:13 -11.74561 111.21991 37883 ft 471 kts 321°
2026-05-01 08:14 -11.69434 111.17819 37892 ft 471 kts 321°
2026-05-01 08:14 -11.64348 111.13681 37883 ft 471 kts 321°
2026-05-01 08:15 -11.56661 111.07433 37882 ft 471 kts 320°
2026-05-01 08:16 -11.51537 111.03272 37880 ft 471 kts 321°
2026-05-01 08:16 -11.47324 110.99852 37901 ft 471 kts 321°
2026-05-01 08:17 -11.41325 110.94985 37882 ft 472 kts 321°
2026-05-01 08:17 -11.37051 110.91518 37903 ft 472 kts 321°
2026-05-01 08:18 -11.31906 110.87348 37879 ft 472 kts 321°
2026-05-01 08:19 -11.21613 110.79010 37875 ft 472 kts 321°
2026-05-01 08:19 -11.16498 110.74869 37873 ft 473 kts 321°
2026-05-01 08:20 -11.11354 110.70707 37879 ft 472 kts 320°
2026-05-01 08:20 -11.06209 110.66546 37879 ft 472 kts 321°
2026-05-01 08:21 -11.01068 110.62390 37881 ft 471 kts 320°
2026-05-01 08:21 -10.95933 110.58241 37872 ft 472 kts 321°
2026-05-01 08:22 -10.90794 110.54090 37893 ft 471 kts 321°
2026-05-01 08:22 -10.85681 110.49963 37871 ft 472 kts 321°
2026-05-01 08:23 -10.80539 110.45814 37873 ft 472 kts 321°
2026-05-01 08:23 -10.75388 110.41660 37869 ft 472 kts 321°
2026-05-01 08:24 -10.70242 110.37511 37868 ft 472 kts 321°
2026-05-01 08:24 -10.65094 110.33363 37866 ft 472 kts 321°
2026-05-01 08:25 -10.59944 110.29215 37888 ft 472 kts 321°
2026-05-01 08:25 -10.54796 110.25070 37862 ft 472 kts 321°
2026-05-01 08:26 -10.49670 110.20945 37868 ft 472 kts 321°
2026-05-01 08:26 -10.44514 110.16797 37884 ft 472 kts 321°
2026-05-01 08:27 -10.39361 110.12654 37865 ft 473 kts 321°
2026-05-01 08:27 -10.34205 110.08511 37883 ft 472 kts 321°
2026-05-01 08:28 -10.29048 110.04367 37862 ft 473 kts 321°
2026-05-01 08:28 -10.23881 110.00218 37864 ft 473 kts 321°
2026-05-01 08:29 -10.18809 109.96147 37876 ft 473 kts 321°
2026-05-01 08:29 -10.13646 109.92005 37862 ft 473 kts 321°
2026-05-01 08:30 -10.08483 109.87864 37857 ft 473 kts 321°
2026-05-01 08:30 -10.03323 109.83728 37879 ft 472 kts 321°
2026-05-01 08:31 -9.98165 109.79595 37856 ft 472 kts 321°
2026-05-01 08:31 -9.93008 109.75464 37853 ft 473 kts 321°
2026-05-01 08:32 -9.87839 109.71325 37874 ft 473 kts 321°
2026-05-01 08:32 -9.82658 109.67179 37849 ft 475 kts 321°
2026-05-01 08:33 -9.77499 109.63059 37871 ft 475 kts 322°
2026-05-01 08:33 -9.71842 109.59595 37866 ft 476 kts 334°
2026-05-01 08:34 -9.65683 109.57124 37855 ft 476 kts 339°
2026-05-01 08:34 -9.59436 109.54858 37864 ft 476 kts 339°
2026-05-01 08:35 -9.53178 109.52575 37861 ft 477 kts 339°
2026-05-01 08:35 -9.46936 109.50272 37848 ft 478 kts 339°
2026-05-01 08:36 -9.40693 109.47957 37867 ft 478 kts 339°
2026-05-01 08:36 -9.34477 109.45651 37870 ft 478 kts 339°
2026-05-01 08:37 -9.28220 109.43332 37868 ft 479 kts 339°
2026-05-01 08:37 -9.21948 109.41008 37851 ft 480 kts 339°
2026-05-01 08:38 -9.15674 109.38686 37848 ft 479 kts 339°
2026-05-01 08:38 -9.09409 109.36367 37871 ft 479 kts 339°
2026-05-01 08:39 -9.03176 109.34061 37869 ft 479 kts 339°
2026-05-01 08:39 -8.96929 109.31751 37850 ft 479 kts 339°
2026-05-01 08:40 -8.87537 109.28279 37861 ft 478 kts 339°
2026-05-01 08:40 -8.81296 109.25974 37840 ft 477 kts 339°
2026-05-01 08:41 -8.75065 109.23673 37860 ft 476 kts 339°
2026-05-01 08:41 -8.68866 109.21384 37867 ft 475 kts 339°
2026-05-01 08:42 -8.62645 109.19088 37864 ft 476 kts 339°
2026-05-01 08:42 -8.56425 109.16792 37837 ft 476 kts 340°
2026-05-01 08:43 -8.50194 109.14494 37862 ft 476 kts 340°
2026-05-01 08:43 -8.43962 109.12197 37864 ft 477 kts 340°
2026-05-01 08:44 -8.37720 109.09897 37858 ft 477 kts 340°
2026-05-01 08:44 -8.31521 109.07613 37850 ft 478 kts 340°
2026-05-01 08:45 -8.25274 109.05312 37859 ft 477 kts 340°
2026-05-01 08:45 -8.19028 109.03012 37863 ft 477 kts 341°
2026-05-01 08:46 -8.12779 109.00712 37851 ft 479 kts 341°
2026-05-01 08:46 -8.06587 108.98435 37858 ft 480 kts 340°
2026-05-01 08:47 -8.00311 108.96126 37863 ft 480 kts 341°
2026-05-01 08:47 -7.94023 108.93814 37863 ft 481 kts 341°
2026-05-01 08:48 -7.87767 108.91515 37838 ft 482 kts 340°
2026-05-01 08:48 -7.81443 108.89191 37862 ft 486 kts 340°
2026-05-01 08:49 -7.75064 108.86847 37872 ft 489 kts 340°
2026-05-01 08:49 -7.68644 108.84489 37870 ft 492 kts 340°
2026-05-01 08:50 -7.62198 108.82123 37869 ft 494 kts 340°
2026-05-01 08:50 -7.55733 108.79750 37867 ft 494 kts 340°
2026-05-01 08:51 -7.49288 108.77386 37866 ft 492 kts 341°
2026-05-01 08:51 -7.42872 108.75032 37862 ft 490 kts 341°
2026-05-01 08:52 -7.36476 108.72687 37865 ft 487 kts 341°
2026-05-01 08:52 -7.30150 108.70369 37870 ft 486 kts 340°
2026-05-01 08:53 -7.23796 108.68041 37871 ft 485 kts 341°
2026-05-01 08:53 -7.17452 108.65717 37863 ft 485 kts 341°
2026-05-01 08:54 -7.11104 108.63392 37865 ft 485 kts 341°
2026-05-01 08:54 -7.04747 108.61065 37868 ft 487 kts 341°
2026-05-01 08:55 -6.98373 108.58732 37867 ft 488 kts 341°
2026-05-01 08:55 -6.91988 108.56396 37876 ft 489 kts 341°
2026-05-01 08:56 -6.85592 108.54057 37856 ft 490 kts 341°
2026-05-01 08:56 -6.79218 108.51726 37854 ft 490 kts 341°
2026-05-01 08:57 -6.72807 108.49382 37841 ft 490 kts 341°
2026-05-01 08:57 -6.66384 108.47035 37838 ft 490 kts 341°
2026-05-01 08:58 -6.59977 108.44694 37827 ft 489 kts 341°
2026-05-01 08:58 -6.53580 108.42357 37833 ft 489 kts 341°
2026-05-01 08:59 -6.47228 108.40037 37815 ft 488 kts 341°
2026-05-01 08:59 -6.40857 108.37711 37818 ft 487 kts 341°
2026-05-01 09:00 -6.34497 108.35389 37822 ft 485 kts 341°
2026-05-01 09:00 -6.28559 108.32270 37809 ft 486 kts 317°
2026-05-01 09:01 -6.23930 108.27327 37826 ft 487 kts 314°
2026-05-01 09:01 -6.19279 108.22353 37824 ft 489 kts 315°
2026-05-01 09:02 -6.15340 108.18269 37823 ft 491 kts 315°
2026-05-01 09:02 -6.10568 108.13346 37821 ft 492 kts 315°
2026-05-01 09:03 -6.05796 108.08446 37717 ft 484 kts 315°
2026-05-01 09:03 -6.03458 108.06046 37313 ft 477 kts 315°
2026-05-01 09:03 -6.01129 108.03655 36479 ft 480 kts 315°
2026-05-01 09:04 -5.98813 108.01223 35440 ft 485 kts 311°
2026-05-01 09:04 -5.97032 107.98399 34323 ft 498 kts 295°
2026-05-01 09:04 -5.96042 107.95038 33200 ft 508 kts 278°
2026-05-01 09:04 -5.95947 107.91477 32106 ft 511 kts 270°
2026-05-01 09:05 -5.96040 107.87890 31077 ft 514 kts 269°
2026-05-01 09:05 -5.96121 107.84345 30210 ft 514 kts 270°
2026-05-01 09:05 -5.96167 107.80778 29552 ft 507 kts 270°
2026-05-01 09:05 -5.96181 107.77257 28935 ft 500 kts 271°
2026-05-01 09:06 -5.96178 107.73787 28325 ft 493 kts 271°
2026-05-01 09:06 -5.96171 107.70396 28099 ft 472 kts 271°
2026-05-01 09:06 -5.96168 107.67194 27728 ft 447 kts 271°
2026-05-01 09:06 -5.96167 107.64123 27009 ft 439 kts 271°
2026-05-01 09:07 -5.96167 107.61031 26482 ft 441 kts 271°
2026-05-01 09:07 -5.96168 107.58011 25857 ft 426 kts 271°
2026-05-01 09:07 -5.96169 107.55055 24985 ft 420 kts 271°
2026-05-01 09:07 -5.96170 107.52130 24033 ft 418 kts 271°
2026-05-01 09:08 -5.96170 107.49212 23075 ft 415 kts 271°
2026-05-01 09:08 -5.96169 107.46323 22103 ft 410 kts 271°
2026-05-01 09:08 -5.96169 107.43480 21231 ft 404 kts 271°
2026-05-01 09:08 -5.96169 107.40682 20437 ft 396 kts 271°
2026-05-01 09:09 -5.96168 107.37912 19983 ft 397 kts 270°
2026-05-01 09:09 -5.96168 107.35127 19468 ft 399 kts 270°
2026-05-01 09:09 -5.96167 107.32372 18993 ft 399 kts 270°
2026-05-01 09:09 -5.96165 107.29587 18577 ft 396 kts 270°
2026-05-01 09:10 -5.96161 107.26831 18099 ft 395 kts 270°
2026-05-01 09:10 -5.96156 107.24119 17610 ft 379 kts 270°
2026-05-01 09:10 -5.96152 107.21503 17033 ft 374 kts 270°
2026-05-01 09:10 -5.96147 107.18882 16558 ft 374 kts 270°
2026-05-01 09:11 -5.96142 107.16272 16095 ft 373 kts 270°
2026-05-01 09:11 -5.96138 107.13676 15649 ft 372 kts 270°
2026-05-01 09:11 -5.96133 107.11073 15184 ft 371 kts 270°
2026-05-01 09:11 -5.96129 107.08507 14711 ft 361 kts 270°
2026-05-01 09:12 -5.96124 107.06020 14294 ft 355 kts 270°
2026-05-01 09:12 -5.96119 107.03505 13868 ft 365 kts 270°
2026-05-01 09:12 -5.96114 107.00923 13527 ft 371 kts 270°
2026-05-01 09:12 -5.96107 106.98395 13297 ft 369 kts 270°
2026-05-01 09:13 -5.96101 106.95864 12988 ft 364 kts 270°
2026-05-01 09:13 -5.96094 106.93336 12658 ft 348 kts 270°
2026-05-01 09:13 -5.96087 106.90963 12123 ft 340 kts 270°
2026-05-01 09:13 -5.96081 106.88615 11610 ft 330 kts 269°
2026-05-01 09:14 -5.96076 106.86321 11236 ft 328 kts 270°
2026-05-01 09:14 -5.96070 106.84033 10917 ft 325 kts 270°
2026-05-01 09:14 -5.96064 106.81799 10498 ft 312 kts 269°
2026-05-01 09:14 -5.96060 106.79679 10153 ft 294 kts 268°
2026-05-01 09:15 -5.96407 106.77731 9787 ft 279 kts 247°
2026-05-01 09:15 -5.97159 106.75919 9468 ft 285 kts 246°
2026-05-01 09:15 -5.97949 106.74045 9112 ft 298 kts 246°
2026-05-01 09:15 -5.98760 106.72097 8748 ft 301 kts 246°
2026-05-01 09:16 -5.99546 106.70187 8346 ft 298 kts 246°
2026-05-01 09:16 -6.00333 106.68262 7981 ft 295 kts 246°
2026-05-01 09:16 -6.01104 106.66365 7593 ft 290 kts 246°
2026-05-01 09:17 -6.02590 106.62699 6898 ft 284 kts 246°
2026-05-01 09:17 -6.03332 106.60866 6598 ft 282 kts 246°
2026-05-01 09:17 -6.04788 106.57265 5907 ft 272 kts 246°
2026-05-01 09:18 -6.05487 106.55534 5675 ft 262 kts 246°
2026-05-01 09:18 -6.06801 106.52277 4885 ft 240 kts 246°
2026-05-01 09:19 -6.08029 106.49239 4347 ft 240 kts 246°
2026-05-01 09:19 -6.08665 106.47665 4058 ft 244 kts 246°
2026-05-01 09:19 -6.09301 106.46092 3795 ft 242 kts 247°
2026-05-01 09:20 -6.10765 106.43138 3191 ft 231 kts 220°
2026-05-01 09:20 -6.13651 106.42374 2708 ft 218 kts 173°
2026-05-01 09:21 -6.16503 106.43139 2119 ft 209 kts 139°
2026-05-01 09:21 -6.17318 106.44286 2093 ft 203 kts 111°
2026-05-01 09:21 -6.17553 106.47123 2026 ft 204 kts 88°
2026-05-01 09:22 -6.17254 106.49891 2021 ft 200 kts 69°
2026-05-01 09:22 -6.16191 106.52523 2037 ft 204 kts 67°
2026-05-01 09:23 -6.15665 106.53811 2010 ft 192 kts 67°
2026-05-01 09:23 -6.14680 106.56191 1873 ft 186 kts 65°
2026-05-01 09:24 -6.13675 106.58548 1108 ft 179 kts 65°
2026-05-01 09:24 -6.13208 106.59675 881 ft 164 kts 65°
2026-05-01 09:24 -6.12433 106.61907 616 ft 176 kts 68°
2026-05-01 09:25 -6.11609 106.63951 209 ft 143 kts 66°
2026-05-01 09:25 -6.10944 106.65565 47 ft 93 kts 68°
2026-05-01 09:26 -6.10778 106.65987 47 ft 42 kts 68°
2026-05-01 09:26 -6.10632 106.66443 44 ft 28 kts 88°
2026-05-01 09:26 -6.10655 106.66608 43 ft 16 kts 109°
2026-05-01 09:27 -6.10688 106.66658 41 ft 0 kts 137°
2026-05-01 09:27 -6.10692 106.66661 43 ft 1 kts 139°
2026-05-01 09:27 -6.10718 106.66676 43 ft 11 kts 156°
2026-05-01 09:28 -6.10791 106.66662 43 ft 12 kts 224°
2026-05-01 09:28 -6.10832 106.66584 43 ft 15 kts 247°
2026-05-01 09:28 -6.10882 106.66463 43 ft 22 kts 248°
2026-05-01 09:28 -6.10942 106.66309 43 ft 24 kts 249°
2026-05-01 09:29 -6.11063 106.66004 44 ft 24 kts 248°
2026-05-01 09:29 -6.11125 106.65851 44 ft 24 kts 248°
2026-05-01 09:30 -6.11199 106.65663 43 ft 11 kts 249°
2026-05-01 09:30 -6.11250 106.65627 43 ft 6 kts 172°
2026-05-01 09:30 -6.11252 106.65628 43 ft 0 kts 171°
2026-05-01 09:31 -6.11296 106.65638 44 ft 14 kts 161°
2026-05-01 09:31 -6.11422 106.65805 43 ft 13 kts 102°
2026-05-01 09:32 -6.11451 106.65861 43 ft 9 kts 135°
2026-05-01 09:32 -6.11568 106.65927 43 ft 10 kts 153°
2026-05-01 09:32 -6.11635 106.65958 43 ft 11 kts 159°
2026-05-01 09:33 -6.11710 106.65986 43 ft 12 kts 159°
2026-05-01 09:33 -6.11779 106.66019 43 ft 9 kts 143°
2026-05-01 09:33 -6.11789 106.66084 43 ft 1 kts 75°
2026-05-01 09:34 -6.11785 106.66104 43 ft 4 kts 86°
2026-05-01 09:34 -6.11803 106.66126 43 ft 5 kts 149°
2026-05-01 09:34 -6.11852 106.66150 43 ft 0 kts 157°
2026-05-01 09:35 -6.11859 106.66153 43 ft 2 kts 158°
2026-05-01 09:35 -6.11874 106.66159 43 ft 0 kts 158°
2026-05-01 09:35 -6.11876 106.66160 43 ft 1 kts 158°
2026-05-01 09:36 -6.11879 106.66161 43 ft 0 kts 158°